Stations météo

réclame
Mon MeteoGroup
Chassiron, France (7314): Température de l'air & dewpoint: 14.10.2017 12:00:00 - 20.10.2017 12:00:00 (CEST)Chassiron, France (7314): Vitesse du vent & gusts: 14.10.2017 12:00:00 - 20.10.2017 12:00:00 (CEST)Chassiron, France (7314): Direction du vent: 14.10.2017 12:00:00 - 20.10.2017 12:00:00 (CEST)Chassiron, France (7314): reduced air pressure: 14.10.2017 12:00:00 - 20.10.2017 12:00:00 (CEST)Chassiron, France (7314): visibility: 14.10.2017 12:00:00 - 20.10.2017 12:00:00 (CEST)Chassiron, France (7314): Quantités de précipitations: 14.10.2017 12:00:00 - 20.10.2017 12:00:00 (CEST)
Date & Time tt [°C] td [°C] ff [km/h] ff [knt] fx [km/h] fx [knt] dd ppp [hPa] vv [km] rr [mm]
20.10.2017 12:00:00 17,7 11,0 9 5 21 11 SW 1017,2 - 0,0
20.10.2017 11:00:00 17,5 11,1 11 6 18 10 SW 1016,9 12 0,0
20.10.2017 10:00:00 16,5 10,3 10 6 20 11 WSW 1016,4 - 0,0
20.10.2017 09:00:00 16,3 10,4 15 8 28 15 W 1015,5 - 0,0
20.10.2017 08:00:00 16,3 10,4 19 10 29 16 W 1015,0 12 0,0
20.10.2017 07:00:00 16,5 11,0 20 11 32 17 W 1014,4 - 0,0
20.10.2017 06:00:00 16,3 11,7 21 12 32 18 W 1013,7 - 0,0
20.10.2017 05:00:00 16,5 11,2 23 12 35 19 W 1013,4 10 0,0
20.10.2017 04:00:00 16,6 11,9 22 12 37 20 WNW 1013,2 - 0,0
20.10.2017 03:00:00 16,7 12,2 27 15 40 21 W 1012,5 - 0,0
20.10.2017 02:00:00 16,1 13,9 29 15 43 23 W 1011,8 10 0,2
20.10.2017 01:00:00 15,8 14,8 38 20 75 41 W 1011,3 - 0,2
20.10.2017 00:00:00 17,0 14,5 43 23 71 38 SSW 1010,2 - 0,2
19.10.2017 23:00:00 17,8 13,1 47 25 70 38 SSW 1009,8 8 0,0
19.10.2017 22:00:00 18,1 14,2 46 25 68 37 S 1009,0 - 0,0
19.10.2017 21:00:00 17,9 14,4 36 19 61 33 S 1009,0 - 0,0
19.10.2017 20:00:00 17,9 14,4 39 21 53 29 S 1009,2 - 0,0
19.10.2017 19:00:00 18,1 14,4 30 16 50 27 S 1009,1 - 0,0
19.10.2017 18:00:00 18,1 14,0 33 18 43 23 S 1009,3 - 0,0
19.10.2017 17:00:00 18,1 14,0 29 16 37 20 SSW 1009,3 17 0,0
19.10.2017 16:00:00 18,6 14,1 24 13 36 19 SSW 1009,3 - 0,0
19.10.2017 15:00:00 18,9 14,8 24 13 32 18 SSW 1009,4 - 0,0
19.10.2017 14:00:00 18,6 14,5 24 13 32 18 SSW 1009,9 15 0,0
19.10.2017 13:00:00 18,6 13,5 23 13 34 18 SW 1010,0 - 0,0
19.10.2017 12:00:00 18,0 14,7 28 15 35 19 WSW 1009,5 - 0,0
19.10.2017 11:00:00 18,1 15,2 24 13 37 20 SSW 1009,3 17 0,0
19.10.2017 10:00:00 17,7 15,1 25 14 38 21 SSW 1009,2 - 0,0
19.10.2017 09:00:00 17,1 15,1 23 12 36 20 S 1008,7 - 0,0
19.10.2017 08:00:00 16,1 14,1 11 6 24 13 SE 1008,6 15 0,0
19.10.2017 07:00:00 17,0 14,6 11 6 23 12 SSW 1008,2 - 0,0
19.10.2017 06:00:00 17,2 15,0 18 10 26 14 WSW 1008,0 - 0,0
19.10.2017 05:00:00 17,6 14,3 19 10 32 17 WSW 1008,2 - 0,0
19.10.2017 04:00:00 17,5 14,9 24 13 33 18 WSW 1008,1 - 0,0
19.10.2017 03:00:00 17,5 15,3 16 9 33 18 SW 1008,2 - 0,0
19.10.2017 02:00:00 17,4 16,1 20 11 25 13 SW 1008,0 - 0,0
19.10.2017 01:00:00 17,2 15,9 9 5 14 7 WSW 1007,9 - 0,0
19.10.2017 00:00:00 17,0 15,7 10 5 22 12 NW 1008,3 - 1,1
18.10.2017 23:00:00 16,8 15,0 19 11 25 13 WSW 1008,9 10 4,2
18.10.2017 22:00:00 18,1 16,4 11 6 25 14 N 1009,0 - 0,0
18.10.2017 21:00:00 18,2 16,2 16 8 22 12 NNW 1008,4 - 0,0
18.10.2017 20:00:00 18,1 15,5 13 7 19 10 NW 1008,5 - 0,0
18.10.2017 19:00:00 18,2 15,4 3 1 6 4 W 1008,7 - 0,0
18.10.2017 18:00:00 18,2 15,4 3 1 9 5 ESE 1009,0 - 0,0
18.10.2017 17:00:00 18,5 15,7 7 4 22 12 S 1009,2 12 0,0
18.10.2017 16:00:00 18,9 16,5 14 7 34 18 S 1009,3 - 0,0
18.10.2017 15:00:00 19,3 16,3 23 13 33 18 S 1010,0 - 0,0
18.10.2017 14:00:00 20,8 16,0 14 8 30 16 S 1010,5 12 0,0
18.10.2017 13:00:00 21,4 15,9 19 10 35 19 S 1011,0 - 0,0
18.10.2017 12:00:00 20,4 16,6 22 12 33 18 SSE 1011,1 - 0,0
18.10.2017 11:00:00 18,2 16,5 14 7 25 14 SSE 1011,2 12 0,0
18.10.2017 10:00:00 17,0 15,7 15 8 25 13 SE 1011,2 - 0,0
18.10.2017 09:00:00 16,9 15,6 14 8 30 16 SE 1011,0 - 0,0
18.10.2017 08:00:00 17,0 15,5 14 7 21 11 SE 1011,4 - 0,2
18.10.2017 07:00:00 17,2 15,5 11 6 17 9 SSE 1011,5 - 0,0
18.10.2017 06:00:00 17,0 15,2 11 6 20 11 SE 1011,6 - 0,0
18.10.2017 05:00:00 17,7 15,5 12 6 22 12 SSE 1012,0 10 0,0
18.10.2017 04:00:00 17,3 15,3 9 5 16 9 SSE 1012,5 - 0,2
18.10.2017 03:00:00 17,7 15,7 8 5 13 7 SE 1013,0 - 0,0
18.10.2017 02:00:00 18,6 16,6 4 2 15 8 SE 1013,3 - 0,0
18.10.2017 01:00:00 19,0 16,8 9 5 21 11 S 1013,8 - 0,0
18.10.2017 00:00:00 19,1 16,3 13 7 21 11 SSE 1013,9 - 0,0
17.10.2017 23:00:00 19,7 16,0 19 11 26 14 SSW 1014,1 16 0,0
17.10.2017 22:00:00 19,3 14,3 16 9 26 14 SSE 1014,2 - 0,0
17.10.2017 21:00:00 19,4 13,6 13 7 27 15 SSE 1014,1 - 0,0
17.10.2017 20:00:00 19,7 13,6 16 9 24 13 SE 1014,1 - 0,0
17.10.2017 19:00:00 21,0 14,2 17 9 31 17 SSE 1014,2 - 0,0
17.10.2017 18:00:00 21,3 15,6 21 11 35 19 S 1014,3 - 0,0
17.10.2017 17:00:00 22,4 15,5 23 12 35 19 SSE 1014,8 12 0,0
17.10.2017 16:00:00 23,0 14,8 23 12 43 23 S 1014,8 - 0,0
17.10.2017 15:00:00 24,2 14,0 18 10 31 17 S 1015,5 - 0,0
17.10.2017 14:00:00 24,5 16,2 19 10 34 18 ESE 1016,1 12 0,0
17.10.2017 13:00:00 22,5 16,5 21 11 34 18 SE 1017,1 - 0,0
17.10.2017 12:00:00 19,6 15,9 22 12 38 21 SE 1017,7 - 0,0
17.10.2017 11:00:00 17,9 15,5 22 12 40 21 SE 1018,4 10 0,0
17.10.2017 10:00:00 15,9 14,6 19 10 36 20 SE 1018,9 - 0,0
17.10.2017 09:00:00 14,8 13,7 16 9 27 15 ESE 1019,0 - 0,0
17.10.2017 08:00:00 15,0 13,9 12 6 29 15 ESE 1019,3 10 0,0
17.10.2017 07:00:00 15,3 14,0 19 10 29 16 SE 1019,3 - 0,0
17.10.2017 06:00:00 16,1 14,5 15 8 33 18 E 1019,8 - 0,0
17.10.2017 05:00:00 16,5 14,7 16 9 31 17 E 1020,4 10 0,0
17.10.2017 04:00:00 16,5 13,6 14 8 34 18 E 1021,1 - 0,0
17.10.2017 03:00:00 16,5 13,2 21 11 34 18 NE 1021,7 - 0,0
17.10.2017 02:00:00 16,2 12,9 23 12 29 16 NNE 1022,5 10 0,0
17.10.2017 01:00:00 16,4 13,3 17 9 21 12 NNE 1023,4 - 0,0
17.10.2017 00:00:00 16,8 13,5 16 9 24 13 NNE 1023,7 - 0,0
16.10.2017 23:00:00 17,2 13,7 16 8 25 14 N 1023,6 18 0,0
16.10.2017 22:00:00 17,5 14,2 15 8 27 15 N 1023,3 - 0,0
16.10.2017 21:00:00 17,7 14,4 21 11 34 18 NNW 1023,1 - 0,0
16.10.2017 20:00:00 17,9 14,4 23 12 37 20 NNW 1023,1 6 0,0
16.10.2017 19:00:00 18,2 15,4 25 13 35 19 NW 1022,6 - 0,0
16.10.2017 18:00:00 18,5 15,9 22 12 32 17 NW 1022,5 - 0,0
16.10.2017 17:00:00 18,9 16,3 20 11 27 15 NW 1022,1 6 0,0
16.10.2017 16:00:00 19,7 17,7 10 5 16 9 WSW 1021,9 - 0,0
16.10.2017 15:00:00 20,0 17,6 14 7 28 15 SSW 1021,7 - 0,0
16.10.2017 14:00:00 20,4 17,2 19 11 33 18 S 1021,4 16 0,0
16.10.2017 13:00:00 20,4 17,2 25 13 36 19 S 1021,2 - 0,0
16.10.2017 12:00:00 20,7 16,7 28 15 43 23 S 1020,9 - 0,0
16.10.2017 11:00:00 20,9 16,1 27 15 43 23 S 1020,4 15 0,0
16.10.2017 10:00:00 19,7 16,0 26 14 39 21 SSE 1019,4 - 0,0
16.10.2017 09:00:00 17,4 15,2 17 9 43 23 SE 1018,8 - 0,0
16.10.2017 08:00:00 17,4 15,2 22 12 45 24 SE 1018,1 - 0,0
16.10.2017 07:00:00 17,5 15,3 22 12 41 22 SE 1018,0 - 0,0
16.10.2017 06:00:00 17,9 15,3 19 10 37 20 SE 1018,1 - 0,0
16.10.2017 05:00:00 18,6 15,5 19 10 39 21 SE 1018,6 - 0,0
16.10.2017 04:00:00 19,1 15,2 22 12 36 19 SSE 1019,2 - 0,0
16.10.2017 03:00:00 19,4 15,1 15 8 33 18 SE 1019,4 - 0,0
16.10.2017 02:00:00 20,4 15,0 17 9 39 21 SE 1019,5 10 0,0
16.10.2017 01:00:00 20,8 15,3 19 10 32 17 SE 1020,0 - 0,0
16.10.2017 00:00:00 20,1 15,7 16 8 31 17 SE 1020,3 - 0,0
15.10.2017 23:00:00 20,1 16,1 19 11 29 16 SE 1020,3 - 0,0
15.10.2017 22:00:00 20,3 16,3 13 7 23 13 ESE 1020,5 - 0,0
15.10.2017 21:00:00 20,7 16,7 13 7 23 12 ESE 1020,6 - 0,0
15.10.2017 20:00:00 21,7 16,2 10 5 23 12 ESE 1020,7 8 0,0
15.10.2017 19:00:00 22,8 16,8 9 5 26 14 SSE 1020,7 - 0,0
15.10.2017 18:00:00 23,8 16,8 16 9 41 22 SSE 1020,3 - 0,0
15.10.2017 17:00:00 23,5 16,0 22 12 41 22 SE 1020,1 - 0,0
15.10.2017 16:00:00 23,1 15,9 23 13 39 21 SSE 1021,2 - 0,0
15.10.2017 15:00:00 23,2 15,8 26 14 42 23 SSE 1021,3 - 0,0
15.10.2017 14:00:00 23,5 16,3 23 12 35 19 SSE 1021,6 10 0,0
15.10.2017 13:00:00 21,8 17,2 16 9 31 17 SE 1022,0 - 0,0
15.10.2017 12:00:00 20,0 16,4 13 7 37 20 SSE 1022,5 - 0,0
15.10.2017 11:00:00 18,9 16,9 17 9 28 15 SSE 1022,2 - 0,0
15.10.2017 10:00:00 16,8 16,0 16 9 25 14 SSE 1022,0 - 0,0
15.10.2017 09:00:00 15,3 14,5 14 8 22 12 SE 1021,6 - 0,0
15.10.2017 08:00:00 15,1 14,3 14 8 24 13 SE 1021,4 - 0,0
15.10.2017 07:00:00 15,0 14,0 12 7 22 12 SE 1021,4 - 0,0
15.10.2017 06:00:00 15,2 14,1 12 6 22 12 SE 1021,3 - 0,0
15.10.2017 05:00:00 15,1 13,6 13 7 21 12 SE 1021,2 - 0,0
15.10.2017 04:00:00 15,3 13,5 12 6 22 12 SE 1021,7 - 0,0
15.10.2017 03:00:00 15,8 13,6 13 7 27 15 SE 1021,9 - 0,0
15.10.2017 02:00:00 16,6 14,2 18 10 32 17 SE 1021,7 10 0,0
15.10.2017 01:00:00 16,5 15,0 16 9 24 13 SE 1021,9 - 0,0
15.10.2017 00:00:00 17,4 16,4 9 5 15 8 E 1022,1 - 0,0
14.10.2017 23:00:00 17,1 16,0 5 3 7 4 NE 1022,3 - 0,0
14.10.2017 22:00:00 17,1 15,8 5 3 5 3 NE 1022,5 - 0,0
14.10.2017 21:00:00 17,1 15,4 4 2 6 3 NW 1022,7 - 0,0
14.10.2017 20:00:00 17,1 14,7 2 1 4 2 NW 1022,6 6 0,0
14.10.2017 19:00:00 18,3 15,4 4 2 13 7 SW 1022,4 - 0,0
14.10.2017 18:00:00 18,9 15,8 10 6 15 8 S 1022,5 - 0,0
14.10.2017 17:00:00 18,9 15,9 13 7 22 12 SSW 1023,0 7 0,0
14.10.2017 16:00:00 19,0 16,2 14 8 27 14 S 1023,3 - 0,0
14.10.2017 15:00:00 19,2 16,2 18 10 24 13 S 1023,8 - 0,0
14.10.2017 14:00:00 20,1 15,9 4 2 23 13 WNW 1024,2 - 0,0
14.10.2017 13:00:00 19,1 15,2 16 9 23 12 E 1024,7 - 0,0
14.10.2017 12:00:00 19,2 14,7 9 5 16 8 E 1025,1 - 0,0

tt = Température de l'air
td = dewpoint
ff = Vitesse du vent
fx = gusts
dd = Direction du vent
ppp = reduced air pressure
vv = visibility
rr = Quantités de précipitations

stations d'obs. à proximité